VTM9904 MMVR-MMQT

Flight info

Callsign VTM9904
Flight time 0h 48m
Altitude 36000
Route RERAS1A RERAS UJ12 TLC UJ45 DAVUL
Aircraft B734/M-SDE2E3FGHIRWXY/LB1

Departure

Time 2026-04-25 17:28
Airport General Heriberto Jara International Airport (MMVR)

Arrival

Time 2026-04-25 18:16
Airport Querétaro Intercontinental Airport (MMQT)
Time Latitude Longitude Altitude Speed Heading
2026-04-25 17:04 19.14382 -96.18407 119 ft 0 kts 101°
2026-04-25 17:20 19.14383 -96.18408 126 ft 2 kts 101°
2026-04-25 17:20 19.14386 -96.18425 114 ft 2 kts 101°
2026-04-25 17:21 19.14389 -96.18442 118 ft 2 kts 101°
2026-04-25 17:21 19.14392 -96.18459 115 ft 2 kts 101°
2026-04-25 17:21 19.14400 -96.18473 113 ft 2 kts 177°
2026-04-25 17:21 19.14395 -96.18476 117 ft 0 kts 191°
2026-04-25 17:23 19.14394 -96.18476 118 ft 1 kts 191°
2026-04-25 17:24 19.14378 -96.18479 114 ft 4 kts 191°
2026-04-25 17:24 19.14344 -96.18498 116 ft 7 kts 238°
2026-04-25 17:24 19.14350 -96.18561 116 ft 10 kts 266°
2026-04-25 17:24 19.14290 -96.18592 114 ft 12 kts 189°
2026-04-25 17:25 19.14208 -96.18623 113 ft 13 kts 219°
2026-04-25 17:25 19.14140 -96.18684 114 ft 13 kts 221°
2026-04-25 17:25 19.14068 -96.18750 115 ft 15 kts 221°
2026-04-25 17:25 19.13982 -96.18831 112 ft 18 kts 222°
2026-04-25 17:26 19.13859 -96.18886 111 ft 21 kts 191°
2026-04-25 17:26 19.13710 -96.18917 116 ft 22 kts 191°
2026-04-25 17:26 19.13560 -96.18948 117 ft 23 kts 191°
2026-04-25 17:26 19.13394 -96.18983 116 ft 26 kts 192°
2026-04-25 17:27 19.13219 -96.19019 118 ft 25 kts 191°
2026-04-25 17:27 19.13038 -96.19057 117 ft 28 kts 191°
2026-04-25 17:27 19.12879 -96.19042 112 ft 17 kts 179°
2026-04-25 17:27 19.12850 -96.19081 115 ft 10 kts 300°
2026-04-25 17:28 19.12961 -96.19073 114 ft 33 kts 11°
2026-04-25 17:28 19.13489 -96.18967 116 ft 119 kts 11°
2026-04-25 17:28 19.14544 -96.18753 135 ft 187 kts 11°
2026-04-25 17:28 19.15809 -96.18496 1291 ft 172 kts 11°
2026-04-25 17:29 19.17006 -96.18214 2356 ft 177 kts 13°
2026-04-25 17:29 19.18282 -96.17946 3088 ft 203 kts 11°
2026-04-25 17:29 19.19797 -96.17640 3421 ft 240 kts 11°
2026-04-25 17:29 19.21503 -96.17293 4036 ft 256 kts 10°
2026-04-25 17:30 19.23314 -96.16932 4670 ft 277 kts
2026-04-25 17:30 19.25249 -96.17091 5552 ft 284 kts 338°
2026-04-25 17:30 19.26855 -96.18241 6717 ft 279 kts 309°
2026-04-25 17:30 19.27767 -96.20004 7709 ft 281 kts 283°
2026-04-25 17:31 19.27833 -96.22067 8677 ft 284 kts 259°
2026-04-25 17:31 19.27235 -96.24077 9552 ft 291 kts 248°
2026-04-25 17:31 19.26388 -96.26066 10301 ft 300 kts 245°
2026-04-25 17:31 19.25451 -96.28142 10661 ft 327 kts 245°
2026-04-25 17:32 19.24446 -96.30386 11126 ft 345 kts 246°
2026-04-25 17:32 19.23425 -96.32712 11922 ft 350 kts 246°
2026-04-25 17:32 19.22410 -96.35063 12784 ft 354 kts 247°
2026-04-25 17:32 19.21390 -96.37455 13616 ft 359 kts 247°
2026-04-25 17:33 19.20359 -96.39884 14335 ft 364 kts 247°
2026-04-25 17:33 19.19317 -96.42338 15097 ft 367 kts 247°
2026-04-25 17:33 19.18437 -96.44877 15830 ft 370 kts 261°
2026-04-25 17:33 19.18224 -96.47590 16574 ft 372 kts 265°
2026-04-25 17:34 19.17755 -96.50299 17300 ft 377 kts 258°
2026-04-25 17:34 19.17103 -96.53011 18005 ft 382 kts 256°
2026-04-25 17:34 19.16443 -96.55744 18608 ft 386 kts 258°
2026-04-25 17:34 19.15826 -96.58517 19253 ft 389 kts 259°
2026-04-25 17:35 19.15425 -96.60407 19692 ft 390 kts 259°
2026-04-25 17:35 19.15244 -96.61271 19898 ft 391 kts 259°
2026-04-25 17:35 19.14790 -96.64115 20524 ft 393 kts 268°
2026-04-25 17:35 19.14763 -96.67008 21172 ft 395 kts 272°
2026-04-25 17:36 19.14838 -96.69918 21818 ft 397 kts 274°
2026-04-25 17:36 19.14927 -96.72851 22438 ft 401 kts 274°
2026-04-25 17:36 19.15002 -96.75810 23046 ft 404 kts 273°
2026-04-25 17:36 19.15059 -96.78793 23617 ft 407 kts 273°
2026-04-25 17:37 19.15101 -96.81798 24135 ft 410 kts 272°
2026-04-25 17:37 19.15135 -96.84817 24674 ft 411 kts 272°
2026-04-25 17:37 19.15166 -96.87857 25023 ft 419 kts 272°
2026-04-25 17:37 19.15198 -96.90980 25182 ft 430 kts 272°
2026-04-25 17:38 19.15229 -96.94175 25382 ft 438 kts 272°
2026-04-25 17:38 19.15250 -96.96316 25539 ft 442 kts 272°
2026-04-25 17:38 19.15292 -97.00671 26076 ft 444 kts 272°
2026-04-25 17:38 19.15322 -97.03926 26626 ft 441 kts 272°
2026-04-25 17:39 19.15352 -97.07164 27253 ft 437 kts 272°
2026-04-25 17:39 19.15380 -97.10361 27886 ft 434 kts 272°
2026-04-25 17:39 19.15409 -97.13549 28458 ft 433 kts 272°
2026-04-25 17:39 19.15436 -97.16730 29052 ft 431 kts 272°
2026-04-25 17:40 19.15463 -97.19849 29691 ft 429 kts 272°
2026-04-25 17:40 19.15490 -97.23035 30297 ft 426 kts 272°
2026-04-25 17:40 19.15516 -97.26122 30773 ft 425 kts 272°
2026-04-25 17:40 19.15541 -97.29248 31285 ft 424 kts 272°
2026-04-25 17:41 19.15566 -97.32361 31873 ft 422 kts 272°
2026-04-25 17:41 19.15590 -97.35455 32462 ft 420 kts 272°
2026-04-25 17:41 19.15613 -97.38536 32999 ft 418 kts 272°
2026-04-25 17:41 19.15636 -97.41607 33487 ft 418 kts 272°
2026-04-25 17:42 19.15658 -97.44676 33975 ft 417 kts 272°
2026-04-25 17:42 19.15680 -97.47735 34417 ft 415 kts 272°
2026-04-25 17:42 19.15701 -97.50786 34853 ft 413 kts 272°
2026-04-25 17:42 19.15722 -97.53819 35255 ft 412 kts 271°
2026-04-25 17:43 19.15742 -97.56845 35638 ft 411 kts 271°
2026-04-25 17:43 19.15761 -97.59830 35950 ft 411 kts 271°
2026-04-25 17:43 19.15800 -97.65939 35952 ft 422 kts 271°
2026-04-25 17:44 19.15838 -97.72247 35958 ft 436 kts 271°
2026-04-25 17:44 19.15874 -97.78728 35952 ft 443 kts 271°
2026-04-25 17:45 19.15896 -97.83078 35946 ft 442 kts 271°
2026-04-25 17:45 19.15937 -97.91724 35946 ft 441 kts 271°
2026-04-25 17:46 19.15965 -97.98077 35947 ft 440 kts 271°
2026-04-25 17:46 19.15991 -98.04501 36018 ft 440 kts 271°
2026-04-25 17:47 19.16016 -98.10964 36105 ft 439 kts 271°
2026-04-25 17:47 19.16038 -98.17420 36198 ft 439 kts 271°
2026-04-25 17:48 19.16067 -98.27107 36317 ft 439 kts 271°
2026-04-25 17:49 19.16084 -98.33559 36322 ft 438 kts 271°
2026-04-25 17:49 19.16441 -98.39982 36326 ft 437 kts 279°
2026-04-25 17:50 19.17401 -98.46333 36313 ft 437 kts 280°
2026-04-25 17:50 19.18374 -98.52639 36245 ft 437 kts 280°
2026-04-25 17:51 19.19326 -98.58994 36159 ft 438 kts 279°
2026-04-25 17:51 19.20266 -98.65373 36085 ft 439 kts 279°
2026-04-25 17:52 19.21150 -98.71443 36023 ft 440 kts 279°
2026-04-25 17:52 19.22079 -98.77843 35985 ft 440 kts 279°
2026-04-25 17:53 19.23008 -98.84241 36054 ft 440 kts 279°
2026-04-25 17:53 19.23935 -98.90639 36104 ft 439 kts 279°
2026-04-25 17:54 19.24857 -98.97022 36160 ft 439 kts 279°
2026-04-25 17:54 19.25778 -99.03406 36195 ft 438 kts 279°
2026-04-25 17:55 19.26671 -99.09614 36211 ft 438 kts 279°
2026-04-25 17:55 19.27585 -99.15990 36212 ft 438 kts 279°
2026-04-25 17:56 19.28498 -99.22365 36173 ft 438 kts 279°
2026-04-25 17:56 19.29406 -99.28731 36116 ft 438 kts 279°
2026-04-25 17:57 19.30314 -99.35103 36215 ft 437 kts 279°
2026-04-25 17:57 19.31212 -99.41430 36304 ft 438 kts 279°
2026-04-25 17:58 19.32115 -99.47806 36391 ft 438 kts 279°
2026-04-25 17:58 19.33473 -99.54051 36395 ft 436 kts 296°
2026-04-25 17:58 19.35033 -99.56795 36394 ft 436 kts 307°
2026-04-25 17:59 19.37099 -99.59137 36386 ft 438 kts 320°
2026-04-25 17:59 19.42061 -99.62904 36386 ft 439 kts 324°
2026-04-25 18:00 19.47123 -99.66600 35520 ft 449 kts 323°
2026-04-25 18:00 19.49672 -99.68502 34746 ft 448 kts 323°
2026-04-25 18:00 19.52220 -99.70424 33780 ft 451 kts 323°
2026-04-25 18:00 19.54773 -99.72362 32857 ft 453 kts 323°
2026-04-25 18:01 19.57324 -99.74300 32203 ft 447 kts 323°
2026-04-25 18:01 19.59836 -99.76207 31535 ft 443 kts 323°
2026-04-25 18:01 19.62331 -99.78093 30893 ft 438 kts 324°
2026-04-25 18:01 19.64954 -99.79730 30244 ft 437 kts 332°
2026-04-25 18:02 19.67781 -99.80950 29295 ft 441 kts 341°
2026-04-25 18:02 19.70708 -99.81870 28635 ft 436 kts 341°
2026-04-25 18:02 19.73601 -99.82759 27980 ft 431 kts 342°
2026-04-25 18:02 19.76463 -99.83647 27337 ft 426 kts 342°
2026-04-25 18:03 19.79289 -99.84539 26730 ft 421 kts 341°
2026-04-25 18:03 19.82080 -99.85432 26120 ft 417 kts 341°
2026-04-25 18:03 19.84840 -99.86322 25527 ft 413 kts 341°
2026-04-25 18:03 19.87580 -99.87207 24909 ft 410 kts 342°
2026-04-25 18:04 19.90300 -99.88085 24298 ft 407 kts 342°
2026-04-25 18:04 19.92989 -99.89005 23674 ft 404 kts 338°
2026-04-25 18:04 19.95590 -99.90168 22830 ft 405 kts 335°
2026-04-25 18:04 19.98132 -99.91412 22180 ft 401 kts 334°
2026-04-25 18:05 20.00613 -99.92650 21566 ft 397 kts 334°
2026-04-25 18:05 20.03134 -99.93904 20950 ft 393 kts 335°
2026-04-25 18:05 20.05603 -99.95117 20352 ft 389 kts 335°
2026-04-25 18:05 20.08017 -99.96294 19780 ft 385 kts 335°
2026-04-25 18:06 20.10475 -99.97487 19188 ft 382 kts 336°
2026-04-25 18:06 20.12856 -99.98640 18593 ft 380 kts 336°
2026-04-25 18:06 20.15257 -99.99801 17970 ft 377 kts 336°
2026-04-25 18:06 20.17638 -100.00952 17345 ft 374 kts 336°
2026-04-25 18:07 20.19236 -100.01726 16930 ft 372 kts 336°
2026-04-25 18:07 20.21578 -100.02860 16356 ft 368 kts 335°
2026-04-25 18:07 20.23913 -100.03957 15746 ft 366 kts 337°
2026-04-25 18:07 20.26281 -100.04940 15141 ft 364 kts 339°
2026-04-25 18:08 20.28648 -100.05879 14575 ft 362 kts 339°
2026-04-25 18:08 20.31005 -100.06813 14004 ft 361 kts 338°
2026-04-25 18:08 20.33319 -100.07740 13429 ft 359 kts 338°
2026-04-25 18:08 20.35618 -100.08673 12844 ft 347 kts 338°
2026-04-25 18:09 20.37839 -100.09578 12322 ft 336 kts 337°
2026-04-25 18:09 20.39993 -100.10455 11795 ft 327 kts 338°
2026-04-25 18:09 20.42206 -100.10787 11257 ft 323 kts
2026-04-25 18:09 20.43601 -100.10304 11072 ft 316 kts 29°
2026-04-25 18:10 20.45383 -100.08047 10924 ft 293 kts 72°
2026-04-25 18:10 20.46064 -100.06064 10835 ft 281 kts 60°
2026-04-25 18:10 20.47191 -100.04409 10666 ft 271 kts 44°
2026-04-25 18:10 20.48591 -100.03121 10573 ft 262 kts 34°
2026-04-25 18:11 20.50072 -100.02033 10494 ft 256 kts 31°
2026-04-25 18:11 20.51567 -100.01032 10374 ft 252 kts 27°
2026-04-25 18:11 20.53096 -100.00142 10247 ft 249 kts 24°
2026-04-25 18:11 20.54641 -99.99419 10152 ft 236 kts 14°
2026-04-25 18:12 20.56221 -99.99338 9906 ft 225 kts 341°
2026-04-25 18:12 20.57570 -100.00099 9602 ft 220 kts 314°
2026-04-25 18:12 20.58442 -100.01383 9371 ft 211 kts 290°
2026-04-25 18:12 20.58797 -100.02847 9025 ft 203 kts 279°
2026-04-25 18:13 20.59013 -100.04294 8764 ft 194 kts 279°
2026-04-25 18:13 20.59254 -100.05676 8542 ft 185 kts 278°
2026-04-25 18:13 20.59487 -100.06996 8290 ft 176 kts 279°
2026-04-25 18:14 20.59921 -100.09394 7977 ft 154 kts 280°
2026-04-25 18:14 20.60167 -100.10505 7838 ft 152 kts 282°
2026-04-25 18:14 20.60410 -100.11597 7717 ft 151 kts 280°
2026-04-25 18:14 20.60612 -100.12685 7507 ft 149 kts 281°
2026-04-25 18:15 20.60846 -100.13744 7289 ft 145 kts 281°
2026-04-25 18:15 20.61040 -100.14776 7034 ft 138 kts 279°
2026-04-25 18:15 20.61225 -100.15795 6823 ft 142 kts 280°
2026-04-25 18:15 20.61416 -100.16824 6611 ft 140 kts 280°
2026-04-25 18:16 20.61592 -100.17775 6572 ft 117 kts 281°
2026-04-25 18:16 20.61710 -100.18462 6571 ft 67 kts 282°
2026-04-25 18:16 20.61941 -100.18704 6568 ft 13 kts 346°
2026-04-25 18:17 20.62028 -100.18684 6568 ft 13 kts 12°
2026-04-25 18:17 20.62078 -100.18621 6566 ft 13 kts 98°
2026-04-25 18:17 20.62064 -100.18531 6566 ft 12 kts 102°
2026-04-25 18:17 20.62046 -100.18443 6565 ft 12 kts 101°
2026-04-25 18:18 20.62032 -100.18358 6565 ft 11 kts 98°
2026-04-25 18:18 20.62081 -100.18308 6567 ft 10 kts
2026-04-25 18:18 20.62116 -100.18346 6568 ft 4 kts 276°
2026-04-25 18:18 20.62117 -100.18348 6568 ft 0 kts 276°